FW2172 Weather Reports


time (UTC)temp
F
wind
direction
speed
knots
gust
knots
rain 1hr
in
rain 24hr
in
rain mn
in
humidity
%
barometer
mb
20260509185704 58 90 4.3 2.6 0.00 0.00 0.00 26 1017.0
20260509185204 58 90 4.3 2.6 0.00 0.00 0.00 26 1017.0
20260509184704 58 90 4.3 2.6 0.00 0.00 0.00 26 1017.0
20260509184204 58 90 4.3 2.6 0.00 0.00 0.00 26 1016.3
20260509183704 58 90 4.3 2.6 0.00 0.00 0.00 26 1016.0
20260509183203 58 90 4.3 2.6 0.00 0.00 0.00 26 1016.0
20260509182704 58 90 4.3 2.6 0.00 0.00 0.00 26 1016.0
20260509182204 58 90 4.3 2.6 0.00 0.00 0.00 26 1016.0
20260509181704 58 90 4.3 2.6 0.00 0.00 0.00 26 1016.0
20260509181204 58 90 4.3 2.6 0.00 0.00 0.00 26 1016.0
20260509180703 58 90 4.3 2.6 0.00 0.00 0.00 26 1016.0
20260509180205 58 90 4.3 2.6 0.00 0.00 0.00 25 1016.0
20260509175704 58 90 4.3 2.6 0.00 0.00 0.00 25 1016.0
20260509175203 58 90 4.3 2.6 0.00 0.00 0.00 25 1016.0
20260509174204 58 90 4.3 2.6 0.00 0.00 0.00 26 1015.3
20260509173704 58 90 4.3 2.6 0.00 0.00 0.00 26 1015.0
20260509173204 58 90 4.3 2.6 0.00 0.00 0.00 26 1015.0
20260509172705 58 90 4.3 2.6 0.00 0.00 0.00 27 1014.4
20260509172204 58 90 4.3 2.6 0.00 0.00 0.00 27 1014.0
20260509171704 58 90 4.3 2.6 0.00 0.00 0.00 27 1014.0
20260509170704 59 90 4.3 2.6 0.00 0.00 0.00 25 1015.0
20260509170204 59 90 4.3 2.6 0.00 0.00 0.00 25 1015.0
20260509165704 59 90 4.3 2.6 0.00 0.00 0.00 25 1015.0
20260509165205 59 90 4.3 2.6 0.00 0.00 0.00 25 1015.0
20260509164703 59 90 4.3 2.6 0.00 0.00 0.00 24 1015.0
20260509164204 59 90 4.3 2.6 0.00 0.00 0.00 24 1015.0
20260509163704 59 90 4.3 2.6 0.00 0.00 0.00 24 1015.0
20260509163204 59 90 4.3 2.6 0.00 0.00 0.00 24 1015.0
20260509162704 59 90 4.3 2.6 0.00 0.00 0.00 24 1015.0
20260509162204 59 90 4.3 2.6 0.00 0.00 0.00 24 1015.0
20260509161704 59 90 4.3 2.6 0.00 0.00 0.00 24 1015.0
20260509161203 60 90 4.3 2.6 0.00 0.00 0.00 24 1014.2
20260509160203 60 90 4.3 2.6 0.00 0.00 0.00 24 1014.0
20260509155204 60 90 4.3 2.6 0.00 0.00 0.00 24 1015.0
20260509154704 60 90 4.3 2.6 0.00 0.00 0.00 24 1015.0
20260509154204 60 90 4.3 2.6 0.00 0.00 0.00 22 1015.0
20260509153704 60 90 4.3 2.6 0.00 0.00 0.00 22 1015.0
20260509153204 60 90 4.3 2.6 0.00 0.00 0.00 22 1015.0
20260509152704 60 90 4.3 2.6 0.00 0.00 0.00 22 1015.0
20260509152204 60 90 4.3 2.6 0.00 0.00 0.00 22 1015.0
20260509151704 60 90 4.3 2.6 0.00 0.00 0.00 22 1015.0
20260509150204 61 90 4.3 2.6 0.00 0.00 0.00 22 1015.0
20260509145204 61 90 4.3 2.6 0.00 0.00 0.00 21 1015.0
20260509144704 61 90 4.3 2.6 0.00 0.00 0.00 21 1015.0
20260509144204 61 90 4.3 2.6 0.00 0.00 0.00 21 1014.4
20260509143704 61 90 4.3 2.6 0.00 0.00 0.00 21 1014.0
20260509143204 61 90 4.3 2.6 0.00 0.00 0.00 19 1014.0
20260509142704 62 90 4.3 2.6 0.00 0.00 0.00 19 1014.0
20260509142205 62 90 4.3 2.6 0.00 0.00 0.00 19 1014.0
20260509141703 62 90 4.3 2.6 0.00 0.00 0.00 19 1014.0
20260509141204 62 90 4.3 2.6 0.00 0.00 0.00 16 1014.0
20260509140703 62 90 4.3 2.6 0.00 0.00 0.00 16 1014.0
20260509140204 62 90 4.3 2.6 0.00 0.00 0.00 16 1014.0
20260509135704 62 90 4.3 5.2 0.00 0.00 0.00 16 1014.0
20260509135203 62 91 3.5 4.3 0.00 0.00 0.00 16 1014.0
20260509134704 62 112 4.3 5.2 0.00 0.00 0.00 16 1014.0
20260509134204 62 112 2.6 5.2 0.00 0.00 0.00 16 1014.0
20260509133703 63 68 5.2 5.2 0.00 0.00 0.00 16 1014.0
20260509132704 63 68 5.2 5.2 0.00 0.00 0.00 16 1014.0
20260509132205 63 68 5.2 5.2 0.00 0.00 0.00 16 1014.0
20260509131204 63 68 5.2 5.2 0.00 0.00 0.00 16 1013.2
20260509130704 63 68 5.2 6.1 0.00 0.00 0.00 16 1013.0
20260509125205 64 90 4.3 5.2 0.00 0.00 0.00 16 1013.0
20260509124705 64 90 4.3 5.2 0.00 0.00 0.00 16 1013.0
20260509124203 64 68 4.3 2.6 0.00 0.00 0.00 16 1013.0
20260509123704 64 68 4.3 2.6 0.00 0.00 0.00 16 1013.0
20260509123204 64 68 4.3 2.6 0.00 0.00 0.00 16 1013.0
20260509122704 64 68 4.3 2.6 0.00 0.00 0.00 16 1012.3
20260509122205 64 68 4.3 2.6 0.00 0.00 0.00 15 1012.0
20260509121704 64 68 4.3 2.6 0.00 0.00 0.00 15 1012.0
20260509121205 64 112 4.3 2.6 0.00 0.00 0.00 15 1012.0
20260509120704 64 112 4.3 1.7 0.00 0.00 0.00 15 1012.0
20260509120204 65 112 4.3 1.7 0.00 0.00 0.00 15 1012.0
20260509115704 65 112 4.3 1.7 0.00 0.00 0.00 15 1012.8
20260509115204 65 112 4.3 1.7 0.00 0.00 0.00 15 1013.0
20260509114204 65 112 4.3 1.7 0.00 0.00 0.00 15 1013.0
20260509113704 65 112 4.3 1.7 0.00 0.00 0.00 15 1013.0
20260509113203 65 112 4.3 1.7 0.00 0.00 0.00 15 1013.0
20260509112703 65 112 4.3 1.7 0.00 0.00 0.00 15 1013.0
20260509112204 65 112 4.3 1.7 0.00 0.00 0.00 15 1013.0
20260509111704 66 112 4.3 1.7 0.00 0.00 0.00 15 1013.0
20260509111204 66 112 4.3 1.7 0.00 0.00 0.00 15 1012.3
20260509105704 66 112 4.3 1.7 0.00 0.00 0.00 15 1012.0
20260509104704 66 112 4.3 1.7 0.00 0.00 0.00 15 1012.0
20260509104203 67 112 4.3 1.7 0.00 0.00 0.00 15 1011.2
20260509103704 67 112 4.3 1.7 0.00 0.00 0.00 15 1011.0
20260509103203 67 112 4.3 1.7 0.00 0.00 0.00 15 1011.0
20260509102705 67 112 4.3 1.7 0.00 0.00 0.00 15 1010.2
20260509102204 68 112 4.3 1.7 0.00 0.00 0.00 15 1010.0
20260509101704 68 112 4.3 1.7 0.00 0.00 0.00 15 1010.0
20260509101204 68 112 4.3 1.7 0.00 0.00 0.00 15 1010.8
20260509100205 68 112 4.3 1.7 0.00 0.00 0.00 15 1011.0
20260509095704 69 112 4.3 1.7 0.00 0.00 0.00 15 1011.0
20260509095205 69 112 4.3 1.7 0.00 0.00 0.00 15 1011.0
20260509094704 69 112 4.3 1.7 0.00 0.00 0.00 15 1011.0
20260509094204 69 112 4.3 1.7 0.00 0.00 0.00 15 1010.2
20260509093704 70 112 4.3 1.7 0.00 0.00 0.00 15 1010.0
20260509092704 70 112 4.3 1.7 0.00 0.00 0.00 14 1010.0
20260509092203 70 112 4.3 1.7 0.00 0.00 0.00 14 1010.0
20260509091704 71 112 4.3 1.7 0.00 0.00 0.00 14 1010.0
20260509091203 71 112 4.3 4.3 0.00 0.00 0.00 14 1010.0
20260509090704 71 90 4.3 4.3 0.00 0.00 0.00 14 1010.0
20260509085705 72 112 3.5 5.2 0.00 0.00 0.00 14 1010.0
20260509085204 73 68 4.3 7.8 0.00 0.00 0.00 14 1010.0
20260509084703 73 95 5.2 6.1 0.00 0.00 0.00 14 1010.0
20260509084204 73 79 2.6 5.2 0.00 0.00 0.00 14 1009.2
20260509083704 73 90 5.2 5.2 0.00 0.00 0.00 14 1009.0
20260509083204 74 45 0.9 0.0 0.00 0.00 0.00 13 1009.0
20260509082205 75 97 3.5 5.2 0.00 0.00 0.00 13 1009.0
20260509081704 74 124 2.6 5.2 0.00 0.00 0.00 13 1009.0
20260509081204 74 112 1.7 4.3 0.00 0.00 0.00 13 1009.0
20260509080704 75 102 3.5 5.2 0.00 0.00 0.00 13 1009.0
20260509075704 76 90 2.6 5.2 0.00 0.00 0.00 13 1009.0
20260509075204 76 90 4.3 5.2 0.00 0.00 0.00 13 1009.0
20260509074704 76 112 2.6 10.4 0.00 0.00 0.00 13 1009.0
20260509073704 77 202 0.0 0.0 0.00 0.00 0.00 13 1009.0
20260509072704 78 202 0.0 0.0 0.00 0.00 0.00 13 1009.0
20260509072204 78 253 1.7 2.6 0.00 0.00 0.00 13 1009.0
20260509071704 78 270 1.7 2.6 0.00 0.00 0.00 13 1009.0
20260509071205 79 284 0.9 5.2 0.00 0.00 0.00 13 1008.2
20260509070704 78 260 0.9 1.7 0.00 0.00 0.00 13 1008.0
20260509070204 77 296 2.6 5.2 0.00 0.00 0.00 13 1008.0
20260509065703 77 270 2.6 6.1 0.00 0.00 0.00 13 1007.2
20260509065203 76 270 4.3 7.0 0.00 0.00 0.00 13 1007.0
20260509064704 77 264 2.6 5.2 0.00 0.00 0.00 13 1007.0
20260509064204 77 264 2.6 5.2 0.00 0.00 0.00 13 1007.0
20260509063705 77 262 2.6 5.2 0.00 0.00 0.00 13 1007.0
20260509062704 77 262 2.6 5.2 0.00 0.00 0.00 13 1006.3
20260509062203 77 253 2.6 5.2 0.00 0.00 0.00 13 1006.0
20260509061704 76 257 4.3 6.1 0.00 0.00 0.00 13 1006.0
20260509060704 76 221 2.6 5.2 0.00 0.00 0.00 13 1007.0
20260509055704 76 273 1.7 5.2 0.00 0.00 0.00 13 1006.2
20260509055204 76 257 2.6 5.2 0.00 0.00 0.00 13 1006.0
20260509054204 75 251 2.6 5.2 0.00 0.00 0.00 13 1006.0
20260509053704 76 268 2.6 6.1 0.00 0.00 0.00 13 1006.0
20260509053204 76 260 2.6 5.2 0.00 0.00 0.00 13 1006.0
20260509052705 75 252 4.3 5.2 0.00 0.00 0.00 13 1006.7
20260509052204 74 270 5.2 10.4 0.00 0.00 0.00 13 1007.0
20260509051204 72 239 6.1 7.0 0.00 0.00 0.00 14 1007.0
20260509050704 74 260 4.3 7.8 0.00 0.00 0.00 13 1007.0
20260509050206 75 217 2.6 5.2 0.00 0.00 0.00 13 1007.0
20260509045704 74 267 4.3 7.0 0.00 0.00 0.00 13 1007.0
20260509045204 75 230 1.7 4.3 0.00 0.00 0.00 13 1007.0
20260509044704 73 249 4.3 7.0 0.00 0.00 0.00 14 1007.0
20260509044204 73 266 5.2 7.0 0.00 0.00 0.00 14 1007.0
20260509043703 73 270 5.2 6.1 0.00 0.00 0.00 14 1007.0
20260509043204 74 262 5.2 7.8 0.00 0.00 0.00 13 1007.0
20260509042704 74 254 4.3 7.0 0.00 0.00 0.00 13 1007.0
20260509042204 75 257 4.3 7.0 0.00 0.00 0.00 13 1007.0
20260509041704 76 244 2.6 5.2 0.00 0.00 0.00 13 1007.0
20260509041203 77 244 2.6 6.1 0.00 0.00 0.00 13 1007.0
20260509040704 76 207 2.6 5.2 0.00 0.00 0.00 13 1007.0
20260509040204 76 230 2.6 5.2 0.00 0.00 0.00 13 1007.0
20260509035704 76 269 2.6 4.3 0.00 0.00 0.00 13 1006.4
20260509035205 74 225 4.3 5.2 0.00 0.00 0.00 13 1006.0
20260509034704 74 241 2.6 6.1 0.00 0.00 0.00 13 1006.0
20260509034204 74 299 4.3 7.0 0.00 0.00 0.00 13 1006.0
20260509033704 75 267 2.6 6.1 0.00 0.00 0.00 13 1006.0
20260509033204 74 281 2.6 7.0 0.00 0.00 0.00 13 1006.0
20260509032703 73 260 4.3 7.0 0.00 0.00 0.00 14 1006.8
20260509032204 74 270 1.7 5.2 0.00 0.00 0.00 13 1007.0
20260509031705 74 256 4.3 8.7 0.00 0.00 0.00 13 1007.0
20260509031203 74 270 6.1 7.0 0.00 0.00 0.00 13 1006.3
20260509030704 74 275 4.3 6.1 0.00 0.00 0.00 13 1006.0
20260509030203 75 270 2.6 5.2 0.00 0.00 0.00 13 1006.0
20260509025704 75 202 3.5 7.0 0.00 0.00 0.00 13 1006.8
20260509024704 74 216 4.3 7.0 0.00 0.00 0.00 13 1007.0
20260509024205 75 248 2.6 5.2 0.00 0.00 0.00 13 1007.0
20260509023204 73 216 4.3 6.1 0.00 0.00 0.00 13 1007.0
20260509022704 73 265 4.3 7.0 0.00 0.00 0.00 14 1007.0
20260509022204 75 274 4.3 7.0 0.00 0.00 0.00 13 1007.0
20260509021704 75 181 0.9 2.6 0.00 0.00 0.00 13 1007.0
20260509020704 74 115 2.6 5.2 0.00 0.00 0.00 13 1007.0
20260509020204 74 248 2.6 2.6 0.00 0.00 0.00 13 1007.0
20260509015704 74 251 2.6 4.3 0.00 0.00 0.00 13 1007.0
20260509015204 74 240 2.6 7.0 0.00 0.00 0.00 13 1007.0
20260509014704 73 60 1.7 2.6 0.00 0.00 0.00 14 1007.0
20260509014204 72 225 2.6 5.2 0.00 0.00 0.00 14 1007.0
20260509013204 72 249 1.7 5.2 0.00 0.00 0.00 14 1007.0
20260509012704 71 246 4.3 7.0 0.00 0.00 0.00 14 1007.0
20260509012204 72 263 3.5 7.0 0.00 0.00 0.00 14 1007.0
20260509011704 72 237 5.2 5.2 0.00 0.00 0.00 14 1007.0
20260509010704 71 225 5.2 5.2 0.00 0.00 0.00 14 1008.0
20260509010204 72 273 4.3 7.8 0.00 0.00 0.00 14 1008.0
20260509005704 72 248 4.3 6.1 0.00 0.00 0.00 14 1007.2
20260509005204 73 264 2.6 6.1 0.00 0.00 0.00 13 1007.0
20260509004704 72 258 4.3 5.2 0.00 0.00 0.00 14 1007.0
20260509004204 73 270 1.7 4.3 0.00 0.00 0.00 14 1007.0
20260509003705 72 191 2.6 6.1 0.00 0.00 0.00 14 1007.0
20260509003204 73 212 2.6 5.2 0.00 0.00 0.00 14 1007.0
20260509002704 73 3 1.7 5.2 0.00 0.00 0.00 14 1007.0
20260509002204 73 202 3.5 4.3 0.00 0.00 0.00 14 1007.0
20260509001204 72 270 2.6 5.2 0.00 0.00 0.00 14 1007.0
20260509000704 71 270 5.2 5.2 0.00 0.00 0.00 14 1007.0
20260509000205 72 270 4.3 4.3 0.00 0.00 0.00 14 1007.0
20260508235704 74 248 1.7 2.6 0.00 0.00 0.00 13 1007.0
20260508235204 74 277 1.7 2.6 0.00 0.00 0.00 13 1007.0
20260508234704 75 45 0.0 0.0 0.00 0.00 0.00 13 1007.0
20260508234204 75 180 0.0 0.9 0.00 0.00 0.00 13 1007.0
20260508233704 74 202 0.0 2.6 0.00 0.00 0.00 13 1007.0
20260508232705 74 315 0.0 0.0 0.00 0.00 0.00 13 1007.0
20260508231704 74 270 1.7 2.6 0.00 0.00 0.00 13 1007.0
20260508231204 74 22 0.9 2.6 0.00 0.00 0.00 13 1006.2
20260508230703 73 45 0.9 1.7 0.00 0.00 0.00 14 1006.0
20260508230203 72 90 1.7 2.6 0.00 0.00 0.00 14 1006.0
20260508225205 71 112 2.6 2.6 0.00 0.00 0.00 14 1006.0
20260508224703 70 112 2.6 2.6 0.00 0.00 0.00 14 1006.0
20260508223705 69 90 5.2 5.2 0.00 0.00 0.00 15 1007.0
20260508223204 68 90 5.2 5.2 0.00 0.00 0.00 15 1007.0
20260508222704 68 90 5.2 5.2 0.00 0.00 0.00 15 1007.0
20260508222204 68 90 5.2 5.2 0.00 0.00 0.00 15 1007.0
20260508221705 68 88 4.3 6.1 0.00 0.00 0.00 15 1007.0
20260508221203 69 55 1.7 4.3 0.00 0.00 0.00 15 1007.0
20260508220704 69 88 2.6 5.2 0.00 0.00 0.00 15 1007.0
20260508220204 68 68 4.3 5.2 0.00 0.00 0.00 15 1007.0
20260508215704 68 77 2.6 5.2 0.00 0.00 0.00 15 1006.2
20260508215203 67 77 1.7 4.3 0.00 0.00 0.00 15 1006.0
20260508214703 66 68 4.3 5.2 0.00 0.00 0.00 15 1006.0
20260508213704 65 68 2.6 4.3 0.00 0.00 0.00 15 1006.0
20260508213204 65 67 1.7 4.3 0.00 0.00 0.00 15 1006.0
20260508212704 64 76 2.6 5.2 0.00 0.00 0.00 16 1006.0
20260508211704 62 68 2.6 5.2 0.00 0.00 0.00 16 1006.0
20260508211204 62 68 1.7 1.7 0.00 0.00 0.00 16 1005.2
20260508210705 62 68 1.7 2.6 0.00 0.00 0.00 16 1005.0
20260508205704 62 22 1.7 0.9 0.00 0.00 0.00 16 1005.0
20260508204703 62 53 0.9 0.0 0.00 0.00 0.00 16 1005.0
20260508204204 61 68 1.7 5.2 0.00 0.00 0.00 16 1005.0
20260508203704 61 68 5.2 5.2 0.00 0.00 0.00 16 1005.0
20260508203205 61 68 5.2 5.2 0.00 0.00 0.00 16 1005.0
20260508202704 61 86 2.6 5.2 0.00 0.00 0.00 16 1005.0
20260508202204 61 45 2.6 2.6 0.00 0.00 0.00 17 1005.0
20260508201704 61 68 0.0 0.9 0.00 0.00 0.00 16 1005.0
20260508200704 61 45 0.0 0.0 0.00 0.00 0.00 16 1004.0
20260508200203 61 90 0.0 0.0 0.00 0.00 0.00 16 1004.0
20260508195704 62 90 0.0 0.0 0.00 0.00 0.00 16 1004.0
20260508195204 62 90 0.0 0.0 0.00 0.00 0.00 16 1004.0
20260508194703 62 90 0.0 2.6 0.00 0.00 0.00 16 1004.0
20260508193704 63 112 0.0 1.7 0.00 0.00 0.00 16 1003.0
20260508193204 63 202 0.0 1.7 0.00 0.00 0.00 16 1003.0
20260508192704 63 183 0.9 1.7 0.00 0.00 0.00 16 1003.0
20260508192204 64 144 2.6 1.7 0.00 0.00 0.00 16 1003.0
20260508191704 64 166 1.7 4.3 0.00 0.00 0.00 16 1003.0
20260508191204 64 173 2.6 4.3 0.00 0.00 0.00 16 1003.0
20260508190704 64 192 2.6 4.3 0.00 0.00 0.00 16 1003.0
20260508190204 64 210 2.6 5.2 0.00 0.00 0.00 16 1003.0